[[{"header":{"parameterUnit":"m.s-1","parameterCategory":1,"la1":30.2991,"la2":30.254,"lo1":-89.0895,"lo2":-89.0444,"dy":0.0017,"dx":0.0017,"nx":28,"ny":28,"refTime":"2025-07-12T03:00:00:Z","depth":0,"parameterNumber":2,"parameterNumberName":"U-component_of_WINDS"},"data":[0,0,0,0,0,0,0,0,0,0,0,0,0,0,0,0,0,0,0,0,0,0,0,0,0,0,0,0,0,0,0,0,0,0,0,0,0,0,0,0,0,0,0,0,0,0,0,0,0,0,0,0,0,0,0,0,0,0,2.2997,2.2998,0,2.3074,2.3075,2.3076,2.3111,2.3111,2.3111,2.3111,2.3189,2.3191,2.3193,0,0,0,0,0,0,0,0,0,0,0,0,0,2.2882,2.2884,2.2997,2.2998,2.2999,2.3074,2.3075,2.3076,2.3111,2.3111,2.3111,2.3111,2.3188,2.3191,2.3193,0,0,0,0,0,0,0,0,0,0,0,0,0,2.2943,2.2885,2.2997,2.3026,2.3029,2.3073,2.3075,2.3076,2.3111,2.3111,2.3111,2.3111,2.3187,2.319,2.3194,2.3215,0,0,2.3203,2.3205,0,0,0,0,0,0,0,0,2.2939,2.2947,2.302,2.3024,2.3027,2.3083,2.3063,2.3123,2.3111,2.308,2.3111,2.3111,2.3154,2.316,2.3174,2.3219,2.3222,2.3204,2.3206,2.3207,2.3208,0,0,0,0,0,0,0,2.2935,2.2944,2.3027,2.3021,2.3026,2.3035,2.3043,2.3074,2.3116,2.3082,2.3085,2.3094,2.3155,2.3171,2.3176,2.3223,2.3204,2.3206,2.3208,2.321,2.3292,2.3292,0,0,0,0,0,0,2.2926,2.294,2.3025,2.303,2.2982,2.3037,2.3046,2.3065,2.3116,2.3124,2.3094,2.3095,2.3165,2.3172,2.3179,2.3209,2.3207,2.321,2.3212,2.3291,2.3292,2.3292,0,0,0,0,0,0,2.2923,2.2933,2.3022,2.2986,2.2998,2.3039,2.306,2.3067,2.3082,2.3125,2.3132,2.3102,2.3166,2.3175,2.3206,2.3212,2.3211,2.3214,2.3291,2.3291,2.3292,2.3268,0,0,0,0,0,0,2.292,2.2932,2.294,2.2986,2.2999,2.3048,2.306,2.3068,2.3088,2.309,2.3134,2.3141,2.3166,2.3201,2.321,2.3216,2.3217,2.3291,2.3291,2.3292,2.3268,2.3267,2.3267,0,0,0,0,0,2.2916,2.293,2.2941,2.2951,2.3011,2.3048,2.3056,2.3084,2.3088,2.3097,2.3124,2.314,2.321,2.3204,2.3214,2.3222,2.3291,2.3291,2.3292,2.3269,2.3268,2.3267,0,0,0,0,0,0,2.2884,2.2937,2.2949,2.2978,2.3009,2.3054,2.3066,2.3082,2.3111,2.3112,2.3147,2.3156,2.3185,2.3207,2.3199,2.3246,2.3252,2.3254,2.3231,2.323,2.3229,2.3224,2.322,0,0,0,0,0,2.2881,2.2907,2.2951,2.2973,2.2987,2.3024,2.3041,2.3061,2.3093,2.3106,2.3136,2.3167,2.3196,2.3214,2.3243,2.3272,2.3282,2.3282,2.3281,2.328,2.3282,2.33,2.33,2.3294,2.3294,2.3294,0,0,2.2874,2.2906,2.292,2.2968,2.2993,2.3019,2.3034,2.3061,2.3081,2.311,2.3142,2.3165,2.3202,2.3232,2.3247,2.3251,2.3286,2.3281,2.328,2.3282,2.33,2.3301,2.3301,2.3294,2.3294,2.3294,0,0,2.2875,2.2901,2.2923,2.2949,2.2987,2.3012,2.3017,2.306,2.3077,2.311,2.3132,2.3157,2.3206,2.3232,2.3251,2.3263,2.3279,2.3272,2.3267,2.3284,2.3284,2.3285,2.329,2.3291,2.3273,2.3273,2.3273,0,2.2862,2.2902,2.2932,2.2958,2.2979,2.3007,2.3029,2.3053,2.3099,2.3112,2.3116,2.318,2.3206,2.3244,2.3247,2.3261,2.3269,2.3267,2.3282,2.3283,2.3284,2.3289,2.3291,2.3272,2.3272,2.3272,2.3272,0,2.2884,2.2912,2.2924,2.2969,2.2991,2.3015,2.3049,2.3068,2.3086,2.311,2.3144,2.3177,2.3214,2.3224,2.3241,2.3265,2.3266,2.3275,2.3282,2.3283,2.3288,2.3291,2.3271,2.3271,2.3271,2.3272,0,0,2.2867,2.2928,2.2933,2.2954,2.2999,2.3021,2.3047,2.3083,2.3099,2.313,2.3153,2.3195,2.3204,2.3226,2.3247,2.3262,2.327,2.327,2.3271,2.3269,2.3299,2.3292,2.3293,2.3281,2.3282,2.3282,2.3296,0,2.2874,2.2922,2.295,2.2986,2.3013,2.304,2.3063,2.3093,2.3117,2.3143,2.3169,2.3198,2.3208,2.3222,2.3238,2.3266,2.3277,2.3265,2.3303,2.3304,2.3293,2.3296,2.3289,2.33,2.3298,2.3299,2.3299,0,2.2889,2.2921,2.2959,2.3003,2.3015,2.3035,2.3071,2.3095,2.3131,2.3147,2.3172,2.3193,2.3222,2.3226,2.3267,2.3258,2.3276,2.3292,2.3293,2.3298,2.3302,2.3302,2.3304,2.3306,2.3302,2.3302,2.3302,0,2.2874,2.2925,2.2956,2.2973,2.3024,2.3037,2.3059,2.3095,2.3115,2.3147,2.3161,2.3195,2.3214,2.3241,2.3271,2.3271,2.3309,2.3315,2.3324,2.3323,2.3331,2.333,2.3337,2.3341,2.3341,2.3341,2.3341,0,2.288,2.2902,2.2949,2.2968,2.2995,2.3028,2.3053,2.3077,2.3109,2.3133,2.3159,2.3181,2.3219,2.3246,2.327,2.33,2.3309,2.3323,2.3329,2.3321,2.3319,2.3333,2.3333,2.3341,2.3341,2.3341,2.3341,0,2.2867,2.2899,2.2934,2.298,2.2992,2.301,2.3049,2.3069,2.3094,2.3124,2.3133,2.3173,2.3206,2.3239,2.3283,2.33,2.333,2.3338,2.3318,2.3322,2.3329,2.3328,2.3345,2.3349,2.335,2.335,2.335,0,2.2868,2.2887,2.2935,2.2953,2.2975,2.3003,2.3025,2.3058,2.3079,2.3122,2.3136,2.3172,2.3202,2.3254,2.3287,2.3321,2.333,2.3334,2.3336,2.3327,2.3331,2.333,2.3332,2.3333,2.3333,2.3333,2.3333,0,2.2868,2.2884,2.2913,2.2949,2.2974,2.3003,2.3034,2.3047,2.3087,2.3109,2.3144,2.3167,2.3213,2.3248,2.3287,2.331,2.3328,2.3332,2.3336,2.3328,2.3316,2.3323,2.3316,2.3331,2.3332,2.3332,2.3332,2.3332,2.2863,2.2881,2.2918,2.2951,2.2978,2.3006,2.3027,2.3055,2.3084,2.3124,2.3142,2.3177,2.3214,2.3268,2.3291,2.3319,2.3323,2.3329,2.333,2.3331,2.333,2.3311,2.3326,2.3326,2.3326,2.3326,2.3326,0,2.2865,2.2891,2.292,2.2962,2.2988,2.3003,2.3038,2.3059,2.3089,2.3122,2.3151,2.3191,2.3226,2.3262,2.3298,2.3314,2.3324,2.3323,2.3322,2.3327,2.3323,2.3317,2.3315,2.3315,2.3315,2.3315,2.3315,2.3315,2.2869,2.2901,2.2921,2.2966,2.2991,2.3026,2.3045,2.3071,2.3097,2.3141,2.317,2.3194,2.3228,2.3267,2.33,2.331,2.3322,2.3319,2.3331,2.3327,2.3327,2.3328,2.3322,2.3321,2.3321,2.3333,2.3333,2.3333]},{"header":{"parameterUnit":"m.s-1","parameterCategory":1,"la1":30.2991,"la2":30.254,"lo1":-89.0895,"lo2":-89.0444,"dy":0.0017,"dx":0.0017,"nx":28,"ny":28,"refTime":"2025-07-12T03:00:00:Z","depth":0,"parameterNumber":3,"parameterNumberName":"V-component_of_WINDS"},"data":[0,0,0,0,0,0,0,0,0,0,0,0,0,0,0,0,0,0,0,0,0,0,0,0,0,0,0,0,0,0,0,0,0,0,0,0,0,0,0,0,0,0,0,0,0,0,0,0,0,0,0,0,0,0,0,0,0,0,-0.8536,-0.8537,0,-0.8634,-0.8635,-0.8636,-0.867,-0.867,-0.867,-0.8669,-0.8771,-0.8774,-0.8777,0,0,0,0,0,0,0,0,0,0,0,0,0,-0.838,-0.8382,-0.8536,-0.8537,-0.8538,-0.8634,-0.8635,-0.8637,-0.867,-0.867,-0.8669,-0.8669,-0.877,-0.8774,-0.8777,0,0,0,0,0,0,0,0,0,0,0,0,0,-0.846,-0.8383,-0.8536,-0.8567,-0.857,-0.8634,-0.8635,-0.8637,-0.8671,-0.867,-0.8669,-0.8669,-0.8769,-0.8773,-0.8778,-0.8818,0,0,-0.8792,-0.8794,0,0,0,0,0,0,0,0,-0.8455,-0.8465,-0.8561,-0.8565,-0.8569,-0.8639,-0.8618,-0.8698,-0.8671,-0.8632,-0.8669,-0.8669,-0.8728,-0.8736,-0.8755,-0.8823,-0.8827,-0.8792,-0.8795,-0.8797,-0.8798,0,0,0,0,0,0,0,-0.8449,-0.8461,-0.8575,-0.8562,-0.8567,-0.8576,-0.8587,-0.8633,-0.8682,-0.8636,-0.8638,-0.865,-0.873,-0.8751,-0.8758,-0.8828,-0.8792,-0.8796,-0.8799,-0.8801,-0.8936,-0.8937,0,0,0,0,0,0,-0.8438,-0.8456,-0.8572,-0.8578,-0.8509,-0.858,-0.8592,-0.8617,-0.8682,-0.8691,-0.865,-0.8651,-0.8743,-0.8753,-0.8762,-0.8815,-0.8797,-0.8801,-0.8804,-0.8935,-0.8936,-0.8937,0,0,0,0,0,0,-0.8435,-0.8448,-0.8568,-0.8518,-0.8534,-0.8583,-0.8612,-0.862,-0.8641,-0.8693,-0.8702,-0.8662,-0.8743,-0.8755,-0.8804,-0.8818,-0.8803,-0.8808,-0.8934,-0.8935,-0.8937,-0.8919,0,0,0,0,0,0,-0.843,-0.8447,-0.8462,-0.8518,-0.8536,-0.8607,-0.8612,-0.8622,-0.8648,-0.865,-0.8707,-0.8715,-0.8744,-0.8797,-0.8809,-0.8825,-0.8811,-0.8933,-0.8935,-0.8936,-0.8919,-0.892,-0.892,0,0,0,0,0,-0.8425,-0.8453,-0.8462,-0.8476,-0.8556,-0.8608,-0.8619,-0.8651,-0.8649,-0.8666,-0.8699,-0.8713,-0.8815,-0.8802,-0.8815,-0.8833,-0.8932,-0.8934,-0.8936,-0.8918,-0.8919,-0.892,0,0,0,0,0,0,-0.8397,-0.8461,-0.8472,-0.8519,-0.8558,-0.8614,-0.8635,-0.8651,-0.8691,-0.8691,-0.8729,-0.8742,-0.8788,-0.8815,-0.8799,-0.8876,-0.8875,-0.8879,-0.8856,-0.8858,-0.8859,-0.8852,-0.8815,0,0,0,0,0,-0.8396,-0.8433,-0.8487,-0.8523,-0.8542,-0.8585,-0.8609,-0.863,-0.8672,-0.8689,-0.8726,-0.8767,-0.8808,-0.8835,-0.8875,-0.8923,-0.8936,-0.8942,-0.8942,-0.8943,-0.8947,-0.8976,-0.8979,-0.8943,-0.8943,-0.8943,0,0,-0.8396,-0.8435,-0.8456,-0.8519,-0.8551,-0.8589,-0.8599,-0.8638,-0.8667,-0.8695,-0.8744,-0.8773,-0.8821,-0.887,-0.8893,-0.8894,-0.896,-0.8945,-0.8945,-0.8949,-0.8978,-0.8981,-0.8984,-0.8944,-0.8944,-0.8944,0,0,-0.8414,-0.8446,-0.8481,-0.8514,-0.8564,-0.8592,-0.8601,-0.8655,-0.8675,-0.8724,-0.8747,-0.8782,-0.8852,-0.8886,-0.8912,-0.8945,-0.8961,-0.8957,-0.8962,-0.899,-0.8993,-0.8996,-0.9009,-0.9013,-0.8961,-0.8961,-0.8961,0,-0.8407,-0.8464,-0.8497,-0.8536,-0.8564,-0.8591,-0.8628,-0.8658,-0.8718,-0.8737,-0.8737,-0.8827,-0.8861,-0.8919,-0.8927,-0.8947,-0.8959,-0.8951,-0.899,-0.8993,-0.8996,-0.9009,-0.9014,-0.896,-0.896,-0.896,-0.896,0,-0.8454,-0.8493,-0.8516,-0.8574,-0.8604,-0.8641,-0.8681,-0.8708,-0.8727,-0.8756,-0.8807,-0.8849,-0.89,-0.8915,-0.8934,-0.8977,-0.8976,-0.8982,-0.8982,-0.8998,-0.9011,-0.9016,-0.8959,-0.8959,-0.896,-0.896,0,0,-0.8457,-0.8534,-0.8541,-0.8569,-0.8626,-0.8658,-0.8697,-0.8747,-0.877,-0.8811,-0.8846,-0.8905,-0.8912,-0.8942,-0.8965,-0.8989,-0.9015,-0.8993,-0.8995,-0.8997,-0.9066,-0.9062,-0.9067,-0.9025,-0.9026,-0.9027,-0.9063,0,-0.8483,-0.8554,-0.8586,-0.8643,-0.8681,-0.8709,-0.8743,-0.8783,-0.8811,-0.8848,-0.888,-0.8922,-0.8927,-0.8946,-0.8971,-0.9006,-0.9029,-0.9004,-0.9059,-0.906,-0.9047,-0.9073,-0.9068,-0.91,-0.9068,-0.9069,-0.9069,0,-0.8524,-0.8565,-0.8626,-0.868,-0.8698,-0.8728,-0.8777,-0.8812,-0.8858,-0.8877,-0.8911,-0.8934,-0.8977,-0.8973,-0.9035,-0.9017,-0.9042,-0.9062,-0.9065,-0.9071,-0.9066,-0.9082,-0.9111,-0.9116,-0.9077,-0.9077,-0.9076,0,-0.8521,-0.8592,-0.8639,-0.8661,-0.8725,-0.8746,-0.8774,-0.882,-0.8848,-0.8891,-0.891,-0.8957,-0.8984,-0.902,-0.9056,-0.9049,-0.9115,-0.9113,-0.9133,-0.9132,-0.9146,-0.9144,-0.918,-0.916,-0.916,-0.916,-0.9159,0,-0.8548,-0.8585,-0.8639,-0.8667,-0.8709,-0.8746,-0.8787,-0.8817,-0.8858,-0.8893,-0.892,-0.8953,-0.8997,-0.9036,-0.9064,-0.9112,-0.9123,-0.9141,-0.9148,-0.9139,-0.9137,-0.9156,-0.9155,-0.9161,-0.9161,-0.916,-0.916,0,-0.8553,-0.859,-0.8643,-0.87,-0.8715,-0.8744,-0.8793,-0.8822,-0.8853,-0.8898,-0.891,-0.8958,-0.9005,-0.9044,-0.9106,-0.9125,-0.9175,-0.9183,-0.916,-0.9164,-0.9182,-0.918,-0.9231,-0.924,-0.9213,-0.9213,-0.9213,0,-0.8568,-0.8597,-0.8657,-0.8683,-0.8711,-0.8751,-0.8781,-0.8819,-0.8848,-0.8904,-0.8927,-0.8976,-0.9018,-0.9093,-0.9133,-0.9181,-0.9191,-0.9206,-0.9198,-0.9189,-0.9193,-0.9191,-0.9195,-0.9207,-0.9207,-0.9207,-0.9207,0,-0.8591,-0.8609,-0.865,-0.8698,-0.8732,-0.8772,-0.8812,-0.8832,-0.8877,-0.8909,-0.8958,-0.899,-0.9054,-0.9104,-0.9156,-0.9186,-0.9205,-0.9209,-0.9216,-0.9208,-0.9194,-0.9203,-0.9163,-0.9208,-0.9208,-0.9207,-0.9207,-0.9207,-0.8603,-0.863,-0.8677,-0.8723,-0.8757,-0.8795,-0.8826,-0.886,-0.8901,-0.8956,-0.8976,-0.9027,-0.9074,-0.9147,-0.9177,-0.9218,-0.922,-0.923,-0.9233,-0.9235,-0.9235,-0.9187,-0.9228,-0.9228,-0.9228,-0.9228,-0.9228,0,-0.8628,-0.866,-0.8702,-0.8758,-0.8794,-0.8808,-0.8854,-0.8883,-0.8927,-0.8969,-0.901,-0.9067,-0.9116,-0.9161,-0.9212,-0.9236,-0.9246,-0.9248,-0.9247,-0.9254,-0.9229,-0.9219,-0.9239,-0.9239,-0.9239,-0.9239,-0.9239,-0.9239,-0.8646,-0.8694,-0.8717,-0.8783,-0.8815,-0.8865,-0.889,-0.8926,-0.896,-0.9022,-0.9063,-0.9092,-0.9136,-0.919,-0.9236,-0.9248,-0.9266,-0.9266,-0.9281,-0.9257,-0.9255,-0.9254,-0.9244,-0.927,-0.927,-0.9302,-0.9303,-0.9303]}]]